SL-16 DEB

Satellite information

Favourite Embed

Satellite Type and Status

DEBRISIN ORBIT

Key statistics

Satellite SL-16 DEB at a glance.

Uptime

11822

Days in orbit

Revolutions

≈ 14.1

Per day

Orbit

LEO

Low Earth Orbit

Inclination

70.8

Latest

Satellite identification and parameters

Extended collection of information and parameters for SL-16 DEB.

Object identification

Identified? True

Debris? True

Object name: SL-16 DEB

International designator: 1992-093GD

Object number (NORAD): 22494

Object ID (CCSDS): 22494

Country: COMMONWEALTH OF INDEPENDENT STATES (CIS)

Current information (Y/N): Y

RCS size: SMALL

Orbital parameters

Period: 102.164 minutes

Inclination: 70.8136 deg

SMA: 7239.221 km

Apoapsis: 973.314 km

Periapsis: 748.859 km

RAAN: 220.277 deg

Eccentricy: 0.0155027

Argument of periapsis: 306.2899 deg

Mean anomaly: 109.8782 deg

Mean motion: 14.09499647 rev/day

Mean motion (dot): 0.00003898 rev/day2

B* drag term: 0.0020185 1/REarth

Two-line elements (TLE)

Creation date: May 8, 2025, 3:01 a.m.

Reference frame: TEME

Reference center: EARTH

Epoch: May 7, 2025, 7:23 a.m. UTC

TLE line 0: 0 SL-16 DEB

TLE line 1: 1 22494U 92093GD 25127.30766509 .00003898 00000-0 20185-2 0 9993

TLE line 2: 2 22494 70.8136 220.2770 0155027 306.2899 109.8782 14.09499647631946

Live tracking on map

Real-time ground track for satellite SL-16 DEB.

In-orbit conjunctions

A list of the most updated potential collisions computed for object SL-16 DEB.

Target Orbit TCA Probability of collision Miss distance Type
PSLV R/B SSO 2025-03-01 08:59:02 0.0002527057 102.0 (m) ROCKET BODY

Associated space launch

Second generation ELING satellite

SL-16 DEB was lifted into orbit during the mission ‘Zenit-2 | Tselina-2 12’, on board a Zenit-2 space rocket.

The launch took place on Dec. 25, 1992, 5:56 a.m. from 45/1.

For more information about the launch, click the button.

Launch to space Zenit-2 | Tselina-2 12
Zenit-2 | Tselina-2 12

Agency: N/A

Status: Launch Successful

Launch date: Dec. 25, 1992, 5:56 a.m. UTC

Rocket: Zenit-2

Launch pad: 45/1

Location: Baikonur Cosmodrome, Republic of Kazakhstan

...

Latest news about this satellite

There are no fresh news available about this satellite. Check back as we update our databases every day.


Newsletter sign-up

Weekly statistics, charts and insights to help you stay on top of the space industry.